Location: PSU-Greenbush Astrophysical Observatory
(37.5140°N, 94.9880°W)
Time: 13:10:58
(UTC-06:00)

deb Explorer IX - Pass Details

Date: 29 January 2020
Orbit: 549 x 1099 km, 38.8° (Epoch: 17 February)

Event Time Altitude Azimuth Distance (km) Brightness Sun altitude
Rises 02:07:44 0° 284° (WNW) 3,901 - -61.5°
Reaches altitude 10° 02:10:41 10° 277° (W) 2,949 - -61.1°
Maximum altitude 02:17:18 38° 213° (SSW) 1,576 - -60.0°
Drops below altitude 10° 02:23:35 10° 147° (SSE) 2,791 - -58.9°
Sets 02:26:19 0° 140° (SE) 3,671 - -58.5°
